Location: Dötzum
(52.0808°N, 9.8063°E)
Time: 07:26:33
(UTC+00:00)

Cosmos 1300 - Pass Details

Date: 27 May 2022
Orbit: 506 x 508 km, 82.5° (Epoch: 28 June)

Event Time Altitude Azimuth Distance (km) Brightness Sun altitude
Rises 00:37:03 0° 343° (NNW) 2,626 7.2 -14.6°
Reaches altitude 10° 00:39:16 10° 336° (NNW) 1,735 6.0 -14.5°
Maximum altitude 00:42:49 39° 267° (W) 777 3.4 -14.3°
Enters shadow 00:44:26 25° 216° (SW) 1,047 3.7 -14.3°
